Flag for Germany Weather past 2 weeks in Magdeburg, Saxony-Anhalt, Germany

Now
43 °F

Overcast.


Feels Like: 43 °F
Forecast: 32 / 45 °F
Wind: 2 mph from South

Location: Magdeburg

Current Time: Feb 27, 2015 at 1:38:56 PM

Latest Report: Feb 27, 2015 at 1:00 PM


Visibility: 11 mi

Pressure: 29.89 "Hg

Humidity: 67%

Dew point: 33 °F

Location of MagdeburgLocation

Historic Weather in Magdeburg — Graph

°F

Magdeburg temperature yesterday

Maximum temperature yesterday: 49 °F (at 2:00 PM)
Minimum temperature yesterday: 29 °F (at 5:00 AM)
Average temperature yesterday: 38 °F

Past Weeks' High & Low Weather Summary

 TemperatureHumidityPressure
High49 °F (Feb 20, 4:00 PM)100% (Feb 12, 12:00 PM)30.76 "Hg (Feb 12, 12:00 PM)
Low25 °F (Feb 17, 8:00 AM)49% (Feb 26, 5:00 PM)29.38 "Hg (Feb 21, 11:00 AM)
Average36 °F81%30.02 "Hg
* Reported Feb 12 12:00 Noon — Feb 27 12:00 Noon, Magdeburg, Weather by CustomWeather, © 2015

Note: Actual official high and low records may vary slightly from our data, if they occured in-between our weather recording intervals... More about our weather records

Advertising

Magdeburg weather history for previous 24 hours

 ConditionsComfort  
Time TempWeatherWind HumidityBarometerVisibility
12:00 PM
Fri, Feb 27
41 °FOvercast.2 mph70%29.89 "Hg12 mi
11:00 AM39 °FPartly sunny.2 mph71%29.89 "Hg16 mi
10:00 AM37 °FScattered clouds.2 mph73%29.88 "Hg16 mi
9:00 AM35 °FScattered clouds.3 mph73%29.88 "Hg14 mi
8:00 AM31 °FPassing clouds.3 mph80%29.87 "Hg16 mi
7:00 AM30 °FPassing clouds.2 mph83%29.87 "Hg16 mi
6:00 AM30 °FPassing clouds.3 mph83%29.86 "Hg10 mi
5:00 AM31 °FPassing clouds.2 mph83%29.87 "Hg9 mi
4:00 AM32 °FPassing clouds.2 mph80%29.88 "Hg11 mi
3:00 AM33 °FPassing clouds.2 mph78%29.90 "Hg11 mi
2:00 AM33 °FPassing clouds.2 mph76%29.92 "Hg11 mi
1:00 AM34 °FPassing clouds.2 mph76%29.93 "Hg9 mi
12:00 AM35 °FPassing clouds.2 mph74%29.95 "Hg11 mi
11:00 PM
Thu, Feb 26
36 °FPassing clouds.3 mph74%29.96 "Hg12 mi
9:00 PM38 °FClear.3 mph66%30.00 "Hg16 mi
8:00 PM39 °FClear.3 mph65%30.02 "Hg19 mi
7:00 PM42 °FClear.3 mph58%30.03 "Hg19 mi
6:00 PM44 °FClear.3 mph58%30.04 "Hg19 mi
5:00 PM48 °FSunny.3 mph49%30.05 "Hg25 mi
3:00 PM49 °FSunny.6 mph50%30.09 "Hg19 mi
2:00 PM49 °FSunny.6 mph53%30.11 "Hg19 mi
1:00 PM47 °FSunny.5 mph61%30.14 "Hg19 mi
Weather by CustomWeather, © 2015

See weather overviewHow to use our weather pages